Van Nuys, CA

2:58 PM PDT on March 27, 2017 (GMT -0700)
Van Nuys

Weather History for KVNY - September, 2013

Change the Weather History Date:

Wednesday, September 11, 2013

  Actual Average Record
Temperature  
Mean Temperature 72 °F -  
Max Temperature 84 °F 87 °F 99 °F (2015)
Min Temperature 62 °F 60 °F 54 °F (1999)
Cooling Degree Days 7    
Growing Degree Days 22 (Base 50)    
Moisture  
Dew Point 56 °F    
Average Humidity 62    
Maximum Humidity 80    
Minimum Humidity 36    
Precipitation  
Precipitation 0.00 in - - ()
Sea Level Pressure  
Sea Level Pressure 29.93 in    
Wind  
Wind Speed 3 mph (SE)    
Max Wind Speed 12 mph    
Max Gust Speed -    
Visibility 10 miles    
Events      
Averages and records for this station are not official NWS values.
T = Trace of Precipitation, MM = Missing Value Source: NWS Daily Summary

Daily Weather History Graph

Daily Weather History Graph

Search for Another Location

Airport or City:

Trip Planner

Search our weather history database for the weather conditions in past years. The results will help you decide how hot, cold, wet, or windy it might be!

Date:

Astronomy

Sep. 11, 2013 Rise Set
Actual Time 6:34 AM PDT 7:05 PM PDT
Civil Twilight 6:09 AM PDT 7:30 PM PDT
Nautical Twilight 5:39 AM PDT 8:00 PM PDT
Astronomical Twilight 5:09 AM PDT 8:30 PM PDT
Moon 12:50 PM PDT (9/11) 11:23 PM PDT (9/11)
Length of Visible Light 13h 21m
Length of Day
12h 31m
Waxing Crescent, 40% of the Moon is Illuminated
Sep 11
Waxing Crescent
Sep 12
First Quarter
Sep 19
Full
Sep 26
Last Quarter
Oct 4
New

Hourly Weather History & Observations

Time (PDT) Temp. Heat Index Dew Point Humidity Pressure Visibility Wind Dir Wind Speed Gust Speed Precip Events Conditions
12:51 AM 64.0 °F - 55.9 °F 75% 29.93 in 10.0 mi ESE 3.5 mph - N/A   Clear
1:51 AM 64.0 °F - 57.0 °F 78% 29.93 in 10.0 mi ESE 3.5 mph - N/A   Clear
2:51 AM 64.0 °F - 55.9 °F 75% 29.93 in 10.0 mi Calm Calm - N/A   Clear
3:51 AM 63.0 °F - 55.9 °F 78% 29.92 in 10.0 mi Calm Calm - N/A   Clear
4:51 AM 63.0 °F - 55.9 °F 78% 29.92 in 10.0 mi Calm Calm - N/A   Clear
5:51 AM 62.1 °F - 55.9 °F 80% 29.94 in 10.0 mi Calm Calm - N/A   Clear
6:51 AM 62.1 °F - 55.9 °F 80% 29.96 in 8.0 mi Calm Calm - N/A   Clear
7:51 AM 64.0 °F - 57.0 °F 78% 29.97 in 7.0 mi East 3.5 mph - N/A   Clear
8:51 AM 66.0 °F - 57.0 °F 73% 29.97 in 8.0 mi Calm Calm - N/A   Clear
9:51 AM 69.1 °F - 57.0 °F 65% 29.98 in 9.0 mi Calm Calm - N/A   Clear
10:51 AM 73.9 °F - 57.0 °F 55% 29.97 in 10.0 mi Variable 4.6 mph - N/A   Clear
11:51 AM 78.1 °F - 55.9 °F 46% 29.96 in 10.0 mi Variable 5.8 mph - N/A   Partly Cloudy
12:51 PM 81.0 °F 80.7 °F 55.0 °F 41% 29.95 in 10.0 mi Variable 5.8 mph - N/A   Clear
1:51 PM 82.0 °F 81.3 °F 54.0 °F 38% 29.93 in 10.0 mi SSE 6.9 mph - N/A   Clear
2:51 PM 82.9 °F 81.8 °F 53.1 °F 36% 29.91 in 10.0 mi South 8.1 mph - N/A   Clear
3:51 PM 81.0 °F 80.7 °F 55.0 °F 41% 29.90 in 10.0 mi SSE 11.5 mph - N/A   Clear
4:51 PM 81.0 °F 80.8 °F 55.9 °F 42% 29.89 in 10.0 mi SSE 8.1 mph - N/A   Clear
5:51 PM 79.0 °F - 55.9 °F 45% 29.89 in 10.0 mi ESE 8.1 mph - N/A   Clear
6:51 PM 75.9 °F - 55.9 °F 50% 29.89 in 10.0 mi ESE 3.5 mph - N/A   Clear
7:51 PM 73.0 °F - 57.0 °F 57% 29.90 in 10.0 mi East 5.8 mph - N/A   Clear
8:51 PM 70.0 °F - 57.0 °F 63% 29.91 in 10.0 mi ESE 3.5 mph - N/A   Clear
9:51 PM 69.1 °F - 57.0 °F 65% 29.92 in 10.0 mi ESE 4.6 mph - N/A   Clear
10:51 PM 68.0 °F - 57.0 °F 68% 29.92 in 10.0 mi Calm Calm - N/A   Clear
11:51 PM 66.9 °F - 57.0 °F 70% 29.92 in 10.0 mi East 3.5 mph - N/A   Clear